Regional Weather Roundup
Issued by NWS

Home | Current Version | Previous Version | Graphics & Text | Print | Product List | Glossary On
Versions: 1 2 3 4 5 6 7 8 9 10 11 12 13 14 15 16 17 18 19 20 21 22 23 24 25 26 27 28 29 30 31 32 33 34 35 36 37 38 39 40 41 42 43 44 45 46 47 48 49 50
000
ASUS45 KSLC 190710
RWRUT

UTAH REGIONAL WEATHER ROUNDUP
NATIONAL WEATHER SERVICE SALT LAKE CITY UT
1200 AM MST SUN NOV 19 2017

UTZ001>011-023>025-190800-

NORTHERN UTAH

CITY           SKY/WX    TMP DP  RH WIND       PRES   REMARKS
BRIGHAM CITY   PTCLDY    28  25  87 CALM      30.36S
HILL AFB       PTCLDY    28  19  70 E14       30.33S WCI  16
LOGAN          MOCLDY    28  22  78 E3        30.35S
OGDEN          PTCLDY    28  21  75 S7        30.34S WCI  21
SALT LAKE CITY PTCLDY    31  25  78 SW6       30.34S WCI  25
TOOELE VALLEY  CLEAR     28  23  80 SW7       30.34S WCI  21
WENDOVER       CLEAR     25  19  78 CALM      30.35S
HEBER CITY       N/A     19  16  86 CALM      30.33F
WEST JORDAN    CLEAR     29  22  74 SW3       30.34S

$$

UTZ011>015-024>027-190800-

CENTRAL/NORTHEAST UTAH

CITY           SKY/WX    TMP DP  RH WIND       PRES   REMARKS
PROVO AIRPORT  PTCLDY    27  21  78 S3        30.36F
MOAB/CANYONLAN CLEAR     24   1  36 CALM      30.38F
DELTA          PTCLDY    19  14  79 E5        30.33F WCI  13
PRICE          CLEAR     21   6  52 N9        30.37S WCI  11
ROOSEVELT      CLOUDY    18  12  79 W6        30.41S WCI   9
VERNAL         CLOUDY    21  10  62 CALM      30.37F

$$

UTZ013>016-019>022-027-190800-

SOUTHERN UTAH

CITY           SKY/WX    TMP DP  RH WIND       PRES   REMARKS
BRYCE CANYON   CLEAR      8   5  87 SW5       30.37S WCI   0
CEDAR CITY     PTCLDY    24  17  74 SE3       30.30F
MILFORD        CLEAR     20  13  74 W7        30.32F WCI  11
ST GEORGE      MOSUNNY   42   6  22 E9        30.31R HAZE
HANKSVILLE     CLEAR     21   1  42 CALM      30.43S
BLANDING         N/A     25   5  42 NE3       30.44S

$$

REGIONAL REPORTS     COLORADO/ARIZONA

CITY           SKY/WX    TMP DP  RH WIND       PRES   REMARKS
CRAIG, CO      CLOUDY    12   7  80 CALM      30.38S
GRAND JUNCTION CLOUDY    20  15  81 E5        30.40S WCI  13
RIFLE, CO      CLOUDY    23  16  74 CALM      30.43S
MONTROSE, CO   CLOUDY    24  18  77 SE12      30.43S WCI  13
CORTEZ, CO     CLOUDY    16   9  74 E7        30.39S WCI   6
COLORADO CITY    N/A     41  10  28 NE15      30.32S
PAGE, AZ       PTCLDY    35  13  40 W3        30.36S
GRAND CANYON   PTCLDY    31   0  26 NE9       30.32S WCI  23
KINGMAN, AZ    PTCLDY    33  10  38 E6        30.22F WCI  28
FLAGSTAFF, AZ  PTCLDY    16  -1  47 CALM      30.34S

$$

REGIONAL REPORTS    NEVADA/IDAHO/WYOMING

CITY           SKY/WX    TMP DP  RH WIND       PRES   REMARKS
LAS VEGAS, NV  PTCLDY    46  12  25 CALM      30.23S
ELY, NY        PTCLDY    14   7  73 S12       30.30F WCI   0
ELKO, NV       PTCLDY    23  19  85 NE3       30.28S
POCATELLO, ID  CLOUDY    27  21  78 W5        30.32S WCI  22
BURLEY, ID     PTCLDY    27  23  85 CALM      30.28F
FORT BRIDGER,    N/A     12   9  85 SW7       30.33S WCI   2
EVANSTON, WY   CLOUDY    18  15  88 E6        30.30S WCI  10
ROCK SPRINGS,  CLOUDY    18  10  71 S3        30.31F

$$



USA.gov is the U.S. government's official web portal to all federal, state and local government web resources and services.